BTO5107 SATC-SARC

Flight info

Callsign BTO5107
Flight time 0h 55m
Altitude 5500
Route DCT
Aircraft C172/L-S/L

Departure

Time 2026-04-16 16:59
Airport Aeródromo de Clorinda (SATC)

Arrival

Time 2026-04-16 17:54
Airport Corrientes Airport (SARC)
Time Latitude Longitude Altitude Speed Heading
2026-04-16 16:58 -25.52296 -57.84634 5496 ft 128 kts 208°
2026-04-16 16:59 -25.53192 -57.85102 5494 ft 131 kts 208°
2026-04-16 16:59 -25.54107 -57.85580 5493 ft 132 kts 208°
2026-04-16 16:59 -25.55026 -57.86060 5493 ft 133 kts 208°
2026-04-16 16:59 -25.55951 -57.86542 5492 ft 133 kts 208°
2026-04-16 17:00 -25.56876 -57.87024 5491 ft 133 kts 208°
2026-04-16 17:00 -25.57812 -57.87513 5491 ft 133 kts 208°
2026-04-16 17:00 -25.58740 -57.87997 5490 ft 133 kts 208°
2026-04-16 17:00 -25.59679 -57.88487 5489 ft 133 kts 208°
2026-04-16 17:01 -25.60617 -57.88977 5488 ft 133 kts 208°
2026-04-16 17:01 -25.61552 -57.89466 5487 ft 133 kts 208°
2026-04-16 17:01 -25.62481 -57.89951 5485 ft 134 kts 208°
2026-04-16 17:01 -25.63414 -57.90437 5483 ft 134 kts 208°
2026-04-16 17:02 -25.64353 -57.90927 5482 ft 134 kts 208°
2026-04-16 17:02 -25.65284 -57.91415 5480 ft 134 kts 208°
2026-04-16 17:02 -25.66213 -57.91900 5479 ft 134 kts 208°
2026-04-16 17:02 -25.67154 -57.92393 5477 ft 134 kts 208°
2026-04-16 17:03 -25.68077 -57.92876 5476 ft 134 kts 208°
2026-04-16 17:03 -25.69015 -57.93366 5475 ft 134 kts 208°
2026-04-16 17:03 -25.69954 -57.93857 5474 ft 134 kts 208°
2026-04-16 17:03 -25.70882 -57.94343 5472 ft 134 kts 208°
2026-04-16 17:04 -25.71788 -57.94817 5471 ft 134 kts 208°
2026-04-16 17:04 -25.72722 -57.95306 5470 ft 134 kts 208°
2026-04-16 17:04 -25.73653 -57.95793 5469 ft 134 kts 208°
2026-04-16 17:04 -25.74592 -57.96285 5469 ft 134 kts 208°
2026-04-16 17:05 -25.75528 -57.96775 5468 ft 134 kts 208°
2026-04-16 17:05 -25.76456 -57.97261 5467 ft 134 kts 208°
2026-04-16 17:05 -25.77393 -57.97752 5467 ft 134 kts 208°
2026-04-16 17:05 -25.78308 -57.98231 5467 ft 133 kts 208°
2026-04-16 17:06 -25.79226 -57.98712 5467 ft 133 kts 208°
2026-04-16 17:06 -25.80143 -57.99193 5467 ft 133 kts 208°
2026-04-16 17:06 -25.81054 -57.99670 5467 ft 133 kts 208°
2026-04-16 17:06 -25.81950 -58.00140 5467 ft 133 kts 208°
2026-04-16 17:07 -25.82839 -58.00606 5467 ft 133 kts 208°
2026-04-16 17:07 -25.83754 -58.01086 5467 ft 133 kts 208°
2026-04-16 17:07 -25.84668 -58.01566 5467 ft 134 kts 208°
2026-04-16 17:07 -25.85553 -58.02030 5467 ft 134 kts 208°
2026-04-16 17:08 -25.86450 -58.02501 5467 ft 134 kts 208°
2026-04-16 17:08 -25.87377 -58.02987 5467 ft 134 kts 208°
2026-04-16 17:08 -25.88319 -58.03482 5467 ft 134 kts 208°
2026-04-16 17:08 -25.89252 -58.03971 5467 ft 134 kts 208°
2026-04-16 17:09 -25.90191 -58.04465 5467 ft 134 kts 208°
2026-04-16 17:09 -25.91118 -58.04951 5467 ft 134 kts 208°
2026-04-16 17:09 -25.92036 -58.05433 5467 ft 134 kts 208°
2026-04-16 17:09 -25.92925 -58.05900 5467 ft 134 kts 208°
2026-04-16 17:10 -25.93797 -58.06359 5467 ft 134 kts 208°
2026-04-16 17:10 -25.94658 -58.06811 5467 ft 134 kts 208°
2026-04-16 17:10 -25.95528 -58.07268 5467 ft 134 kts 208°
2026-04-16 17:10 -25.96391 -58.07722 5467 ft 134 kts 208°
2026-04-16 17:11 -25.97253 -58.08175 5467 ft 134 kts 208°
2026-04-16 17:11 -25.98115 -58.08628 5467 ft 134 kts 208°
2026-04-16 17:11 -25.98980 -58.09083 5467 ft 134 kts 208°
2026-04-16 17:11 -25.99851 -58.09542 5467 ft 134 kts 208°
2026-04-16 17:12 -26.00715 -58.09996 5467 ft 134 kts 208°
2026-04-16 17:12 -26.01580 -58.10451 5467 ft 134 kts 208°
2026-04-16 17:12 -26.02443 -58.10906 5467 ft 132 kts 208°
2026-04-16 17:12 -26.03304 -58.11358 5466 ft 131 kts 208°
2026-04-16 17:13 -26.04164 -58.11811 5466 ft 130 kts 208°
2026-04-16 17:13 -26.05009 -58.12256 5466 ft 130 kts 208°
2026-04-16 17:13 -26.05849 -58.12698 5466 ft 130 kts 208°
2026-04-16 17:13 -26.06686 -58.13139 5466 ft 130 kts 208°
2026-04-16 17:14 -26.07521 -58.13580 5466 ft 130 kts 208°
2026-04-16 17:14 -26.08348 -58.14015 5466 ft 130 kts 208°
2026-04-16 17:14 -26.09184 -58.14456 5466 ft 130 kts 208°
2026-04-16 17:14 -26.10027 -58.14900 5466 ft 130 kts 208°
2026-04-16 17:15 -26.10873 -58.15346 5466 ft 130 kts 208°
2026-04-16 17:15 -26.11728 -58.15797 5466 ft 130 kts 208°
2026-04-16 17:15 -26.12578 -58.16245 5466 ft 130 kts 208°
2026-04-16 17:15 -26.13414 -58.16685 5466 ft 130 kts 208°
2026-04-16 17:16 -26.14255 -58.17129 5466 ft 130 kts 208°
2026-04-16 17:16 -26.15097 -58.17574 5466 ft 130 kts 208°
2026-04-16 17:16 -26.15943 -58.18020 5466 ft 130 kts 208°
2026-04-16 17:16 -26.16810 -58.18478 5466 ft 130 kts 208°
2026-04-16 17:17 -26.17691 -58.18942 5466 ft 130 kts 208°
2026-04-16 17:17 -26.18576 -58.19410 5466 ft 130 kts 208°
2026-04-16 17:17 -26.19454 -58.19873 5466 ft 130 kts 208°
2026-04-16 17:17 -26.20338 -58.20340 5466 ft 130 kts 208°
2026-04-16 17:18 -26.21217 -58.20805 5466 ft 130 kts 208°
2026-04-16 17:18 -26.22120 -58.21281 5466 ft 130 kts 208°
2026-04-16 17:18 -26.23009 -58.21751 5466 ft 130 kts 208°
2026-04-16 17:18 -26.23921 -58.22233 5466 ft 130 kts 208°
2026-04-16 17:19 -26.24814 -58.22705 5466 ft 130 kts 208°
2026-04-16 17:19 -26.25727 -58.23188 5466 ft 130 kts 208°
2026-04-16 17:19 -26.26617 -58.23658 5466 ft 130 kts 208°
2026-04-16 17:19 -26.27520 -58.24136 5466 ft 130 kts 208°
2026-04-16 17:20 -26.28421 -58.24612 5466 ft 130 kts 208°
2026-04-16 17:20 -26.29319 -58.25088 5466 ft 130 kts 208°
2026-04-16 17:20 -26.30220 -58.25564 5466 ft 130 kts 208°
2026-04-16 17:20 -26.31119 -58.26040 5466 ft 130 kts 208°
2026-04-16 17:21 -26.32021 -58.26517 5466 ft 130 kts 208°
2026-04-16 17:21 -26.32911 -58.26988 5466 ft 130 kts 208°
2026-04-16 17:21 -26.33795 -58.27456 5466 ft 130 kts 208°
2026-04-16 17:21 -26.34688 -58.27930 5466 ft 130 kts 208°
2026-04-16 17:22 -26.35582 -58.28403 5466 ft 130 kts 208°
2026-04-16 17:22 -26.36460 -58.28868 5466 ft 130 kts 208°
2026-04-16 17:22 -26.37352 -58.29340 5466 ft 130 kts 208°
2026-04-16 17:22 -26.38251 -58.29817 5466 ft 130 kts 208°
2026-04-16 17:23 -26.39144 -58.30290 5466 ft 130 kts 208°
2026-04-16 17:23 -26.40039 -58.30765 5466 ft 130 kts 208°
2026-04-16 17:23 -26.40931 -58.31238 5466 ft 130 kts 208°
2026-04-16 17:23 -26.41812 -58.31705 5466 ft 130 kts 208°
2026-04-16 17:24 -26.42718 -58.32185 5466 ft 130 kts 208°
2026-04-16 17:24 -26.43618 -58.32663 5466 ft 130 kts 208°
2026-04-16 17:24 -26.44519 -58.33141 5466 ft 130 kts 208°
2026-04-16 17:24 -26.45396 -58.33606 5466 ft 130 kts 208°
2026-04-16 17:25 -26.46292 -58.34082 5466 ft 130 kts 208°
2026-04-16 17:25 -26.47182 -58.34553 5466 ft 130 kts 208°
2026-04-16 17:25 -26.48058 -58.35019 5466 ft 130 kts 208°
2026-04-16 17:25 -26.48903 -58.35468 5466 ft 130 kts 208°
2026-04-16 17:26 -26.49732 -58.35907 5466 ft 130 kts 208°
2026-04-16 17:26 -26.50580 -58.36358 5466 ft 130 kts 208°
2026-04-16 17:26 -26.51417 -58.36802 5466 ft 130 kts 208°
2026-04-16 17:26 -26.52249 -58.37245 5466 ft 130 kts 208°
2026-04-16 17:27 -26.53089 -58.37691 5466 ft 130 kts 208°
2026-04-16 17:27 -26.53929 -58.38138 5466 ft 130 kts 208°
2026-04-16 17:27 -26.54785 -58.38593 5466 ft 130 kts 208°
2026-04-16 17:27 -26.55646 -58.39050 5466 ft 130 kts 208°
2026-04-16 17:28 -26.56534 -58.39523 5466 ft 130 kts 208°
2026-04-16 17:28 -26.57421 -58.39994 5466 ft 130 kts 208°
2026-04-16 17:28 -26.58338 -58.40482 5466 ft 130 kts 208°
2026-04-16 17:28 -26.59240 -58.40963 5466 ft 130 kts 208°
2026-04-16 17:29 -26.60147 -58.41445 5466 ft 130 kts 208°
2026-04-16 17:29 -26.61032 -58.41916 5466 ft 130 kts 208°
2026-04-16 17:29 -26.61946 -58.42403 5466 ft 130 kts 208°
2026-04-16 17:29 -26.62849 -58.42884 5466 ft 130 kts 208°
2026-04-16 17:30 -26.63757 -58.43367 5466 ft 130 kts 208°
2026-04-16 17:30 -26.64674 -58.43855 5466 ft 130 kts 208°
2026-04-16 17:30 -26.65586 -58.44341 5466 ft 130 kts 208°
2026-04-16 17:30 -26.66492 -58.44824 5466 ft 130 kts 208°
2026-04-16 17:31 -26.67409 -58.45312 5466 ft 130 kts 208°
2026-04-16 17:31 -26.68311 -58.45793 5466 ft 130 kts 208°
2026-04-16 17:31 -26.69233 -58.46285 5466 ft 130 kts 208°
2026-04-16 17:31 -26.70133 -58.46765 5466 ft 130 kts 208°
2026-04-16 17:32 -26.71050 -58.47254 5466 ft 130 kts 208°
2026-04-16 17:32 -26.71958 -58.47738 5466 ft 130 kts 208°
2026-04-16 17:32 -26.72872 -58.48226 5465 ft 129 kts 208°
2026-04-16 17:32 -26.73771 -58.48706 5464 ft 129 kts 208°
2026-04-16 17:33 -26.74674 -58.49187 5463 ft 129 kts 208°
2026-04-16 17:33 -26.75587 -58.49675 5462 ft 129 kts 208°
2026-04-16 17:33 -26.76493 -58.50158 5461 ft 130 kts 208°
2026-04-16 17:33 -26.77380 -58.50632 5459 ft 130 kts 208°
2026-04-16 17:34 -26.78294 -58.51120 5458 ft 130 kts 208°
2026-04-16 17:34 -26.79198 -58.51604 5457 ft 130 kts 208°
2026-04-16 17:34 -26.80112 -58.52092 5455 ft 131 kts 209°
2026-04-16 17:34 -26.81033 -58.52584 5454 ft 131 kts 209°
2026-04-16 17:35 -26.81940 -58.53069 5452 ft 131 kts 209°
2026-04-16 17:35 -26.82864 -58.53563 5450 ft 132 kts 209°
2026-04-16 17:35 -26.83784 -58.54055 5449 ft 132 kts 209°
2026-04-16 17:35 -26.84729 -58.54560 5447 ft 133 kts 209°
2026-04-16 17:36 -26.85663 -58.55060 5445 ft 133 kts 209°
2026-04-16 17:36 -26.86595 -58.55558 5443 ft 134 kts 209°
2026-04-16 17:36 -26.87512 -58.56049 5441 ft 134 kts 209°
2026-04-16 17:36 -26.88436 -58.56544 5440 ft 135 kts 209°
2026-04-16 17:37 -26.89353 -58.57034 5440 ft 135 kts 209°
2026-04-16 17:37 -26.90285 -58.57533 5440 ft 135 kts 209°
2026-04-16 17:37 -26.91217 -58.58032 5440 ft 135 kts 209°
2026-04-16 17:37 -26.92164 -58.58540 5440 ft 135 kts 209°
2026-04-16 17:38 -26.93088 -58.59034 5440 ft 135 kts 209°
2026-04-16 17:38 -26.94042 -58.59545 5440 ft 135 kts 209°
2026-04-16 17:38 -26.94984 -58.60050 5440 ft 135 kts 209°
2026-04-16 17:38 -26.95920 -58.60551 5440 ft 135 kts 209°
2026-04-16 17:39 -26.96849 -58.61049 5440 ft 135 kts 209°
2026-04-16 17:39 -26.97776 -58.61546 5440 ft 135 kts 209°
2026-04-16 17:39 -26.98714 -58.62049 5440 ft 135 kts 209°
2026-04-16 17:39 -26.99656 -58.62554 5440 ft 135 kts 209°
2026-04-16 17:40 -27.00596 -58.63058 5440 ft 135 kts 209°
2026-04-16 17:40 -27.01529 -58.63559 5440 ft 135 kts 209°
2026-04-16 17:40 -27.02467 -58.64062 5440 ft 135 kts 209°
2026-04-16 17:40 -27.03424 -58.64576 5365 ft 140 kts 209°
2026-04-16 17:41 -27.04372 -58.65087 5210 ft 137 kts 210°
2026-04-16 17:41 -27.05309 -58.65590 5053 ft 133 kts 210°
2026-04-16 17:41 -27.06231 -58.66086 4896 ft 131 kts 210°
2026-04-16 17:41 -27.07063 -58.66534 4753 ft 130 kts 210°
2026-04-16 17:42 -27.07877 -58.66971 4611 ft 129 kts 210°
2026-04-16 17:42 -27.08685 -58.67405 4470 ft 129 kts 210°
2026-04-16 17:42 -27.09495 -58.67841 4328 ft 129 kts 210°
2026-04-16 17:42 -27.10311 -58.68280 4183 ft 129 kts 210°
2026-04-16 17:43 -27.11232 -58.68775 4018 ft 128 kts 210°
2026-04-16 17:43 -27.12145 -58.69266 3856 ft 128 kts 210°
2026-04-16 17:43 -27.13028 -58.69740 3699 ft 128 kts 210°
2026-04-16 17:43 -27.13942 -58.70232 3537 ft 128 kts 210°
2026-04-16 17:44 -27.14846 -58.70719 3377 ft 128 kts 210°
2026-04-16 17:44 -27.15763 -58.71212 3215 ft 127 kts 210°
2026-04-16 17:44 -27.16649 -58.71687 3090 ft 125 kts 208°
2026-04-16 17:44 -27.17583 -58.71965 3056 ft 120 kts 195°
2026-04-16 17:45 -27.18512 -58.72140 3024 ft 117 kts 193°
2026-04-16 17:45 -27.19419 -58.72290 2995 ft 116 kts 193°
2026-04-16 17:45 -27.20332 -58.72437 2953 ft 124 kts 192°
2026-04-16 17:45 -27.21302 -58.72589 2857 ft 130 kts 192°
2026-04-16 17:46 -27.22284 -58.72741 2733 ft 134 kts 192°
2026-04-16 17:46 -27.23252 -58.72891 2595 ft 136 kts 192°
2026-04-16 17:46 -27.24213 -58.73038 2463 ft 132 kts 192°
2026-04-16 17:46 -27.25137 -58.73179 2331 ft 126 kts 192°
2026-04-16 17:47 -27.26027 -58.73317 2181 ft 125 kts 192°
2026-04-16 17:47 -27.26923 -58.73425 2106 ft 120 kts 186°
2026-04-16 17:47 -27.27708 -58.73522 2020 ft 98 kts 194°
2026-04-16 17:47 -27.28374 -58.73644 1943 ft 88 kts 195°
2026-04-16 17:48 -27.28982 -58.73751 1937 ft 83 kts 195°
2026-04-16 17:48 -27.29557 -58.73848 1939 ft 81 kts 195°
2026-04-16 17:48 -27.30125 -58.73941 1940 ft 80 kts 195°
2026-04-16 17:48 -27.30701 -58.74034 1940 ft 80 kts 195°
2026-04-16 17:49 -27.31277 -58.74125 1940 ft 80 kts 195°
2026-04-16 17:49 -27.31838 -58.74211 1985 ft 77 kts 195°
2026-04-16 17:49 -27.32432 -58.74304 1995 ft 79 kts 195°
2026-04-16 17:49 -27.33039 -58.74399 1995 ft 80 kts 194°
2026-04-16 17:50 -27.33650 -58.74494 1995 ft 80 kts 194°
2026-04-16 17:50 -27.34267 -58.74590 1995 ft 80 kts 194°
2026-04-16 17:50 -27.34890 -58.74688 1923 ft 87 kts 194°
2026-04-16 17:50 -27.35514 -58.74787 1820 ft 89 kts 194°
2026-04-16 17:51 -27.36153 -58.74886 1705 ft 90 kts 194°
2026-04-16 17:51 -27.36793 -58.74984 1586 ft 90 kts 194°
2026-04-16 17:51 -27.37431 -58.75083 1464 ft 90 kts 194°
2026-04-16 17:51 -27.38060 -58.75180 1343 ft 90 kts 194°
2026-04-16 17:52 -27.38704 -58.75279 1217 ft 90 kts 194°
2026-04-16 17:52 -27.39334 -58.75376 1093 ft 90 kts 194°
2026-04-16 17:52 -27.39970 -58.75474 969 ft 90 kts 194°
2026-04-16 17:52 -27.40607 -58.75572 844 ft 90 kts 194°
2026-04-16 17:53 -27.41237 -58.75670 721 ft 90 kts 194°
2026-04-16 17:53 -27.41874 -58.75767 596 ft 89 kts 194°
2026-04-16 17:53 -27.42504 -58.75865 477 ft 90 kts 194°
2026-04-16 17:53 -27.43120 -58.75958 405 ft 77 kts 197°
2026-04-16 17:54 -27.43600 -58.76069 323 ft 62 kts 195°
2026-04-16 17:54 -27.44009 -58.76123 250 ft 53 kts 208°
2026-04-16 17:54 -27.44378 -58.76190 229 ft 48 kts 202°
2026-04-16 17:54 -27.44706 -58.76262 207 ft 37 kts 204°
2026-04-16 17:55 -27.44781 -58.76209 207 ft 12 kts 18°
2026-04-16 17:55 -27.44706 -58.76127 207 ft 14 kts 54°
2026-04-16 17:55 -27.44666 -58.76020 207 ft 11 kts 85°
2026-04-16 17:55 -27.44669 -58.75944 207 ft 7 kts 111°
2026-04-16 17:56 -27.44696 -58.75909 207 ft 0 kts 160°
2026-04-16 17:56 -27.44707 -58.75909 207 ft 0 kts 187°
2026-04-16 17:56 -27.44708 -58.75909 207 ft 0 kts 185°